Regional Weather Roundup
Issued by NWS Albany, NY

Home | Current Version | Previous Version | Text Only | Print | Product List | Glossary On
Versions: 1 2 3 4 5 6 7 8 9 10 11 12 13 14 15 16 17 18 19 20 21 22 23 24 25 26 27 28 29 30 31 32 33 34 35 36 37 38 39 40 41 42 43 44 45 46 47 48 49 50
774
ASUS41 KALY 080410
RWRALY

NEW YORK STATE HOURLY WEATHER ROUNDUP
NATIONAL WEATHER SERVICE ALBANY NY
1100 PM EST WED DEC 07 2016

NOTE: "FAIR" INDICATES FEW OR NO CLOUDS BELOW 12,000 FEET WITH NO
SIGNIFICANT WEATHER AND/OR NO OBSTRUCTIONS TO VISIBILITY.

NYZ032-033-038>043-046>054-057>066-NYZ062>081-082-084-080500-
EAST


CITY           SKY/WX    TMP DP  RH WIND       PRES   REMARKS
ALBANY         CLOUDY    34  32  92 CALM      30.00S
GLENS FALLS    CLOUDY    33  29  85 CALM      29.98S
POUGHKEEPSIE   CLOUDY    29  29 100 CALM      30.01R
NEWBURGH       MOCLDY    36  36 100 W6        30.02R WCI  31
MONTGOMERY     CLOUDY    33  31  92 SW3       30.00S
WHITE PLAINS   CLOUDY    37  35  92 CALM      30.00S
ISLIP          MOCLDY    36  36 100 CALM      30.02R
NEW YORK CITY  CLOUDY    46  34  62 W5        30.02S
CENTRAL PARK   PTCLDY    44  33  65 W6        30.05R
$$

NYZ005>009-017-018-044>046-055-056-080500-
CENTRAL


CITY           SKY/WX    TMP DP  RH WIND       PRES   REMARKS
FULTON         CLOUDY    37  27  67 SW7       29.96F WCI  32
SYRACUSE       MOCLDY    29  27  92 S5        29.97F WCI  24
ROME           PTCLDY    29  28  96 CALM      29.99S
ELMIRA         PTCLDY    31  27  85 CALM      29.98R
BINGHAMTON     MOCLDY    32  25  75 SW6       29.94S WCI  26
MONTICELLO     PTCLDY    30  28  93 CALM      29.98F
$$

NYZ026>034-041>043-087-080500-
NORTH


CITY           SKY/WX    TMP DP  RH WIND       PRES   REMARKS
WATERTOWN      CLOUDY    40  32  73 W13G18    29.92F WCI  32
FORT DRUM      NOT AVBL
OGDENSBURG     CLOUDY    34  27  74 S5        29.92S WCI  30
MASSENA        PTCLDY    30  21  69 SW5       29.93F WCI  25
SARANAC LAKE   CLOUDY    31  25  78 W5        29.87F WCI  26
PLATTSBURGH    CLOUDY    38  26  62 SW3       29.94F
$$

NYZ001>004-010>016-019>021-085-080500-
WEST


CITY           SKY/WX    TMP DP  RH WIND       PRES   REMARKS
NIAGARA FALLS  MOCLDY    36  27  69 W10       29.95S WCI  28
BUFFALO        MOCLDY    37  25  61 SW12      29.94S WCI  29
DUNKIRK        MOCLDY    34  23  64 SW13      29.98S WCI  25
JAMESTOWN      CLEAR     28  19  69 SW8       29.95S WCI  20
WELLSVILLE     CLEAR     31  21  66 SW5       29.95S WCI  26
ROCHESTER      MOCLDY    33  26  75 SW7       29.96S WCI  27
PENN YAN       PTCLDY    34  25  69 S5        29.96S WCI  30
$$

             KEY
       WCI = WIND CHILL INDEX
       VSB = VISIBILITY
       HX  = HEAT INDEX
$$




USA.gov is the U.S. government's official web portal to all federal, state and local government web resources and services.